Regional Weather Roundup
Issued by NWS Portland, ME

Home | Current Version | Previous Version | Text Only | Print | Product List | Glossary On
Versions: 1 2 3 4 5 6 7 8 9 10 11 12 13 14 15 16 17 18 19 20 21 22 23 24 25 26 27 28 29 30 31 32 33 34 35 36 37 38 39 40 41 42 43 44 45 46 47 48 49 50
000
ASUS41 KGYX 170710
RWRGYX
WEATHER ROUNDUP FOR MAINE AND NEW HAMPSHIRE
NATIONAL WEATHER SERVICE GRAY ME
300 AM EDT THU AUG 17 2017

MEZ002-005-006-010-012-015-018-020-021-024-026-027-029-170800-
MAINE

CITY           SKY/WX    TMP DP  RH WIND       PRES   REMARKS
PORTLAND       PTCLDY    54  45  71 W5        30.01S
SANFORD        CLEAR     43  42  97 CALM      30.02F
BAR HARBOR     CLEAR     56  48  74 W5        29.94F
WISCASSET      PTCLDY    53  48  83 CALM      30.00S
ROCKLAND       PTCLDY    50  45  83 W5        29.97S
FRYEBURG       CLEAR     54  47  77 CALM      30.02S
LEWISTONAUBURN PTCLDY    51  47  86 SW3       30.00
AUGUSTA        CLEAR     59  46  62 W6        29.98F
WATERVILLE     CLEAR     55  48  77 SW5       29.94F
BANGOR         PTCLDY    53  47  79 W6        29.95F
GREENVILLE       N/A     52  44  74 VRB5      29.93F
MILLINOCKET    PTCLDY    48  45  89 CALM      29.93F
HOULTON        PTCLDY    51  44  77 SW5       29.86
PRESQUE ISLE   CLEAR     51  43  74 W9        29.85S
FRENCHVILLE    NOT AVBL
CARIBOU        CLEAR     48  41  76 SW7       29.82S
$$

NHZ002-005-008-009-011-012-014-170800-
NEW HAMPSHIRE

CITY           SKY/WX    TMP DP  RH WIND       PRES   REMARKS
PORTSMOUTH     CLEAR     57  48  72 W6        30.00F
ROCHESTER      CLEAR     52  45  77 CALM      30.01F
NASHUA         CLEAR     55  52  89 NW5       30.03F
MANCHESTER     CLEAR     57  49  74 SW3       30.02S
CONCORD        CLEAR     49  46  90 CALM      30.04F
LACONIA        CLEAR     50  48  93 CALM      30.04F
PLYMOUTH       FAIR      48  46  93 CALM      30.04S
BERLIN         PTCLDY    43  40  89 CALM      30.02F
WHITEFIELD     CLEAR     43  39  86 CALM      30.05S
JAFFREY        CLEAR     54  51  90 CALM      30.06F
KEENE            N/A    N/A N/A N/A MISG        N/A
LEBANON        CLEAR     49  47  93 CALM      30.06R
MT WASHINGTON  FOG       36  36 100 NW48G66     N/A  VSB 0
$$

VTZ005-007-008-170800-
VERMONT

CITY           SKY/WX    TMP DP  RH WIND       PRES   REMARKS
ST JOHNSBURY     N/A     49  49 100 MISG      30.04S
MONTPELIER     CLEAR     48  47  96 S5        30.09F
BURLINGTON     CLEAR     54  51  90 CALM      30.05S
$$

MAZ007-012-024-CTZ003-RIZ002-NYZ038-NYZ072-170800-
SOUTHERN NEW ENGLAND AND NY

CITY           SKY/WX    TMP DP  RH WIND       PRES   REMARKS
BOSTON         MOCLDY    67  46  47 NW9       30.03S
WORCESTER      CLEAR     62  45  53 N5        30.05F
NANTUCKET      CLOUDY    67  67 100 N3        29.99F
PROVIDENCE     CLEAR     65  51  60 N8        30.03S
HARTFORD       CLEAR     59  57  93 NW3       30.04S
ALBANY         CLEAR     57  54  89 NE3       30.07S
NEW YORK CITY  PTCLDY    73  61  65 NE8       30.02S
$$

ANZ081-ANZ082-ANZ150-NHZ014-MEZ023>029-170800-
COASTAL MARINE OBSERVATIONS

STATION/POSITION TIME  TEMP    WIND        PRES    WAVE
                       AIR SEA DIR/SP/G            HT/PER
                 (UTC) (F)     (DEG/KT/KT) (MB)    (FT/S)
MOUNT DESERT ROC 0700   58                 1014.0F
MATINICUS ROCK   0600   60     310/ 14/ 14 1014.2F
ISLE OF SHOALS   0600   62     310/  9/ 10 1016.1R
JEFFREYS LEDGE   0606      66                N/A     3/11
CASHES LEDGE BUO 0650   66 68              1015.3R   5/13
GEORGES BANK BUO 0550   64 63              1013.5    7/10
$$

.............KEY..............
   WCI - WIND CHILL
   TC  - TEMPERATURE IN CELSIUS
   VSB - VISIBILITY IN MILES
   HX  - HEAT INDEX
   FAIR- INDICATES FEW OR NO CLOUDS BELOW 12,000 FT, WITH NO
         SIGNIFICANT WEATHER AND/OR OBSTRUCTIONS TO VISIBILITY.





USA.gov is the U.S. government's official web portal to all federal, state and local government web resources and services.